Theta_e
322 323 322 320 325 324 328 329 332 331 331 331 330 330 328 331 332 334 337 335 334 333 333 336 335 334 334 332 331 332 334 335 336 335 334 333 328 324 322 319 318 318 317 317
321 323 320 319 322 327 329 332 331 329 329 330 330 330 328 331 332 333 334 336 335 335 334 336 335 335 334 335 335 334 335 335 336 335 334 332 325 320 316 313 310 310 310 309
322 323 321 323 322 324 323 327 332 332 331 329 329 331 330 328 329 331 332 333 333 334 335 334 333 334 334 335 335 334 334 335 335 333 333 326 321 315 310 307 306 304 304 303
320 318 323 322 323 323 320 323 325 328 332 333 329 337 330 328 327 330 333 334 333 333 334 334 333 331 328 324 325 325 324 326 329 330 328 325 317 313 307 305 303 302 301 300
319 317 323 325 325 325 326 323 325 325 329 329 332 335 329 328 328 328 329 334 334 334 332 331 328 320 317 317 316 316 317 319 321 324 323 319 312 308 305 302 300 298 297 297
315 314 316 321 323 323 325 326 324 324 325 328 328 333 332 329 327 326 326 332 334 332 330 326 317 314 313 312 311 310 311 312 314 316 315 313 309 305 303 301 299 298 297 296
318 317 317 317 324 324 326 326 327 328 327 332 327 332 330 328 326 324 326 331 332 329 321 315 313 311 310 308 307 306 306 305 307 308 307 306 305 303 301 300 298 297 297 295
316 321 318 319 324 326 327 324 328 333 333 330 326 329 330 324 318 317 323 330 327 322 318 316 312 309 306 304 303 302 301 301 303 303 301 301 299 298 298 298 297 295 294 294
317 318 319 318 320 322 326 328 321 323 320 328 329 327 324 321 319 319 323 322 321 318 316 311 309 306 302 301 300 299 299 298 298 297 298 297 297 296 296 296 295 295 297 294
315 317 318 321 318 320 323 320 326 324 329 332 330 327 329 324 321 318 320 319 316 312 310 307 304 303 301 299 298 297 298 298 297 298 298 297 297 298 301 303 300 295 292 290
314 315 318 319 318 320 322 324 325 325 324 330 328 325 310 323 322 317 317 317 313 309 306 304 302 300 299 298 297 298 298 298 299 301 303 305 308 309 307 299 293 291 289 288
310 315 313 317 314 313 316 322 323 327 325 320 322 322 310 312 320 316 316 315 311 308 306 303 302 301 299 299 300 303 304 305 306 306 308 308 305 298 292 291 290 288 287 287
310 312 311 317 317 316 316 319 322 319 320 320 328 321 310 317 316 315 314 312 309 307 305 304 303 302 302 302 302 302 303 303 305 302 301 297 293 292 290 289 287 287 287 286
309 312 313 320 319 317 319 318 320 322 322 320 320 314 311 319 316 314 312 310 308 308 307 306 306 305 303 301 300 299 298 299 299 298 296 293 291 289 289 287 287 287 286 286
309 312 313 313 312 315 319 319 321 322 322 322 321 315 311 315 315 313 312 310 310 310 309 308 307 305 303 301 300 298 299 300 298 294 292 291 290 289 288 287 286 286 285 284
308 311 314 313 313 315 317 318 319 320 320 319 316 314 309 310 314 312 312 311 311 311 311 309 308 306 303 301 299 298 299 296 294 292 291 291 290 289 287 286 285 284 284 283
309 311 314 316 312 314 313 314 319 319 318 319 319 310 309 309 313 313 311 311 312 313 312 310 309 305 302 300 299 297 296 294 292 292 291 291 289 288 286 285 284 283 283 282
304 309 311 313 312 314 311 306 317 320 319 316 311 310 310 309 307 308 311 311 314 314 312 310 308 304 302 300 298 297 295 294 292 291 291 290 288 286 285 284 283 282 282 282
302 308 311 309 308 313 304 306 315 318 319 315 314 309 307 306 305 305 304 306 311 311 311 312 307 303 300 299 297 296 294 293 292 291 290 288 287 286 285 283 283 282 282 281
304 308 309 310 309 311 307 307 310 315 316 303 313 308 306 305 309 307 302 301 300 302 304 306 305 302 299 296 296 295 293 291 291 291 290 288 287 286 285 284 282 281 281 280
310 310 313 311 308 310 300 302 305 313 312 301 306 308 306 307 304 300 297 296 296 296 298 300 300 298 297 296 295 293 292 291 292 290 289 288 287 286 284 282 281 281 280 279
306 307 306 301 305 307 297 305 311 302 301 301 304 304 302 299 298 297 295 293 293 293 294 295 295 295 294 294 293 292 291 292 291 290 289 288 287 285 283 281 280 280 279 279
306 304 306 304 303 295 296 298 298 298 299 300 302 301 299 298 297 297 295 293 292 292 292 293 293 292 292 292 292 292 292 292 291 290 289 287 285 283 282 281 280 279 278 277
298 297 299 297 296 296 297 297 295 296 297 297 297 298 298 297 296 295 294 292 292 292 292 292 292 291 292 292 292 293 292 291 289 288 287 286 284 283 281 280 279 278 278 277
298 296 297 296 296 297 296 296 295 294 293 292 293 294 295 294 295 294 293 292 293 293 292 293 293 293 293 292 292 291 290 289 288 288 286 285 284 282 281 280 280 279 279 278
295 295 297 297 294 295 296 295 295 294 293 293 293 292 292 293 292 292 291 292 292 292 292 292 291 291 291 291 290 290 289 288 287 286 286 285 283 282 281 280 279 278 277 277
Wind_Speed
6 5 8 14 14 7 5 14 9 14 8 17 17 12 8 9 7 9 14 13 12 13 15 21 24 23 21 21 22 22 19 19 18 15 14 14 12 9 10 10 7 8 8 8
5 11 13 9 15 9 11 11 19 9 7 2 12 12 10 9 11 9 9 13 14 13 14 16 23 23 21 19 19 20 19 18 16 14 14 17 16 11 11 11 12 11 11 10
6 0 8 12 14 1 6 4 6 4 7 3 6 13 17 7 7 9 6 3 10 14 15 12 15 18 18 17 16 15 17 16 13 17 21 22 16 15 14 12 13 12 12 13
3 7 5 13 13 8 2 1 3 3 14 10 7 6 14 14 8 9 12 7 8 9 11 11 14 14 19 17 16 15 14 13 12 13 15 15 19 19 14 14 13 14 13 14
3 7 1 6 6 12 4 8 5 3 2 3 4 3 11 15 14 13 11 15 12 13 9 14 13 19 18 16 17 16 15 14 15 14 14 20 23 19 17 15 16 15 14 14
2 2 3 4 2 12 10 6 5 4 1 3 6 2 5 12 16 13 13 14 15 17 15 14 22 23 19 18 20 20 21 20 18 18 18 19 21 21 19 16 15 13 12 12
1 5 2 2 1 2 5 3 2 2 2 0 1 7 6 4 8 3 16 13 11 14 16 15 13 17 17 21 22 22 23 23 21 23 23 22 22 21 19 16 14 11 10 10
4 1 6 4 3 3 9 8 2 1 3 3 3 4 3 5 5 6 5 17 14 14 13 13 15 19 19 21 23 22 24 25 24 26 26 23 20 20 18 14 12 11 10 11
2 2 2 3 4 5 4 4 2 5 1 3 3 4 5 7 5 5 11 15 13 13 11 13 18 18 19 21 22 26 29 28 27 25 23 21 20 18 16 14 11 8 6 5
2 1 4 2 3 1 1 6 4 3 4 3 3 3 2 7 9 8 9 12 12 12 12 12 17 18 18 21 26 28 28 28 26 24 23 21 16 13 9 5 4 2 3 3
5 1 1 2 2 2 3 3 2 0 1 1 4 2 3 6 12 12 9 11 13 13 13 10 14 17 19 25 28 28 28 28 25 20 16 13 10 2 3 3 4 4 5 5
2 3 1 2 2 3 1 3 4 2 3 0 3 1 4 6 11 13 10 14 13 13 12 11 14 16 18 24 26 24 22 19 17 15 12 10 8 7 8 7 7 6 6 5
7 2 2 2 2 1 2 2 2 2 3 1 3 3 4 5 8 12 13 12 12 13 13 11 13 14 15 20 19 18 17 16 16 14 11 8 9 10 9 8 8 6 4 4
3 3 1 3 2 2 2 4 3 3 1 4 4 2 2 5 7 11 11 11 12 12 12 12 11 14 14 15 17 16 17 16 14 12 10 10 10 9 9 8 7 6 5 4
2 1 2 1 2 3 3 7 10 4 3 3 3 3 5 5 8 9 11 12 12 12 11 9 9 13 15 17 18 18 16 14 13 13 12 12 11 10 9 8 7 6 6 5
4 3 3 1 3 3 4 6 9 9 1 2 1 3 4 5 9 10 13 14 15 13 12 11 11 16 17 18 20 19 17 16 16 15 14 13 12 11 10 9 8 8 8 7
3 1 2 2 2 4 3 6 8 3 2 3 3 1 4 2 4 10 12 14 14 13 13 13 12 16 17 20 23 22 20 19 19 18 16 15 15 13 12 11 11 10 9 9
6 4 1 2 1 1 3 2 4 5 5 4 5 3 4 3 4 6 3 9 10 11 10 9 13 17 21 22 23 21 21 21 21 20 18 18 17 14 13 12 13 11 11 10
11 4 3 3 2 4 4 4 5 5 3 5 5 4 4 5 3 2 3 3 6 7 10 17 23 22 23 25 24 24 22 22 21 21 21 19 16 16 14 14 14 13 13 12
10 3 1 3 4 4 1 1 1 2 1 6 4 7 6 5 2 3 3 4 6 10 8 16 19 22 24 24 25 24 24 23 24 23 20 17 16 16 16 16 15 15 14 13
5 3 2 2 1 3 2 2 4 4 2 4 1 5 6 3 0 4 5 5 6 6 6 10 14 18 19 21 23 25 25 26 21 18 17 17 17 18 17 16 17 16 14 14
4 4 3 1 2 4 4 3 1 1 1 3 3 5 6 6 6 6 6 6 7 7 6 7 10 12 14 18 21 22 21 19 16 17 18 19 18 18 17 17 17 16 16 15
1 2 2 3 3 1 3 3 1 1 2 3 4 5 9 8 5 5 5 6 7 8 7 5 6 8 10 14 17 19 19 17 17 18 19 18 18 19 19 18 18 18 17 16
4 2 1 2 3 2 4 4 4 4 5 5 6 4 5 8 7 6 6 5 5 5 5 4 6 8 9 11 15 15 15 16 18 18 18 20 21 21 21 20 20 19 20 20
2 4 5 2 2 2 4 5 3 7 8 9 8 7 7 8 6 5 4 4 4 2 2 3 6 8 9 10 12 14 17 18 19 19 21 22 22 22 22 23 24 24 24 23
3 1 1 3 1 1 2 3 4 7 6 7 7 7 7 9 7 7 5 5 4 5 4 5 7 10 11 13 15 16 19 21 21 22 23 24 24 24 24 24 24 22 19 19
Wind_Direction
168 168 203 229 243 228 243 198 206 177 193 192 190 223 180 166 172 203 165 159 179 188 191 204 163 158 162 165 170 168 170 172 170 169 168 157 137 138 120 113 103 96 92 90
191 215 206 208 289 232 259 203 206 203 126 358 198 204 235 164 182 184 158 158 172 177 195 182 156 159 163 163 165 166 169 171 169 172 177 158 141 130 121 108 91 80 85 85
243 312 143 181 233 345 350 350 162 185 186 283 309 217 203 207 182 158 137 229 165 173 177 156 139 155 160 159 164 156 147 155 166 152 143 142 137 123 112 99 93 85 86 80
265 327 185 206 224 164 275 173 359 347 163 201 223 212 207 197 189 160 173 188 181 158 141 129 126 127 119 111 123 133 137 148 152 153 159 157 139 126 120 114 103 93 86 83
91 18 307 196 241 169 144 155 191 19 184 119 204 218 208 184 206 178 173 175 174 151 162 130 129 109 113 121 123 129 131 131 129 146 151 145 129 126 125 115 100 87 80 75
52 85 298 310 270 180 136 138 94 79 104 185 187 222 256 185 195 176 180 179 174 150 143 120 107 110 113 118 116 116 115 107 118 124 130 134 132 129 122 114 105 93 79 64
117 210 220 277 242 155 124 115 107 150 160 142 280 187 263 14 356 174 174 165 142 131 118 112 115 120 117 114 113 111 116 107 117 120 119 124 126 128 123 119 113 109 91 68
162 257 179 183 269 165 184 169 113 6 156 110 358 200 256 86 44 3 56 113 116 117 120 128 124 120 115 110 114 120 118 112 116 118 115 117 120 119 115 110 105 94 80 63
64 225 110 17 24 338 160 186 312 101 280 107 202 253 282 145 104 73 94 105 109 114 125 117 117 112 109 121 122 122 120 116 113 111 111 108 110 111 110 111 98 75 45 49
48 290 13 105 10 14 235 132 84 333 146 184 177 262 228 158 156 147 129 124 114 105 108 109 110 116 118 123 124 124 121 115 113 109 108 109 106 99 81 47 47 80 96 100
138 194 31 153 103 317 90 133 122 25 353 164 146 216 330 193 169 155 148 135 124 123 121 121 120 129 129 129 130 126 122 121 120 123 124 118 108 133 248 203 158 151 142 132
318 14 53 72 187 307 287 333 160 175 218 111 126 33 349 316 139 141 143 134 134 135 131 128 131 132 133 134 133 132 134 133 132 133 140 159 157 161 164 168 159 168 156 131
347 243 338 118 115 53 224 231 285 42 34 133 75 298 351 58 99 130 133 138 135 137 135 136 137 147 153 150 153 154 156 154 153 155 156 151 160 171 179 176 169 160 152 144
40 308 45 30 55 339 185 200 300 159 112 159 212 186 170 123 127 128 130 131 135 144 155 160 159 157 154 158 163 165 159 154 155 163 168 172 176 182 185 188 184 172 177 172
297 266 284 130 49 20 299 199 192 246 204 112 15 84 162 177 148 137 134 136 146 155 163 167 160 153 157 165 172 174 166 168 175 177 179 185 189 194 198 199 192 188 191 192
199 292 156 78 307 41 323 311 192 201 219 95 308 103 21 138 127 144 164 164 169 173 171 169 167 166 171 174 180 182 181 182 184 184 189 196 200 203 204 208 207 202 199 196
293 168 274 136 313 14 295 231 202 157 241 119 148 80 115 68 164 169 175 177 173 175 174 174 177 178 179 182 188 189 186 189 189 194 196 203 208 207 209 211 213 212 210 209
306 136 232 129 176 48 271 325 214 179 210 147 118 120 109 136 62 51 136 170 172 175 179 177 176 180 186 189 192 193 194 194 197 200 203 208 210 210 212 214 219 217 220 222
211 263 144 157 195 266 168 195 174 162 231 207 145 105 95 92 75 350 16 55 167 172 174 179 184 187 190 195 197 197 194 198 201 207 210 212 213 215 217 220 222 224 225 225
186 171 124 165 131 188 297 317 38 262 49 349 179 156 146 139 144 233 138 52 51 75 115 157 172 179 189 193 200 194 197 200 207 212 214 216 219 225 228 229 227 228 227 229
116 116 198 285 244 299 21 303 331 108 201 305 18 147 140 171 336 104 87 59 71 79 108 145 161 176 192 197 198 200 203 209 214 217 219 224 228 232 232 232 230 231 230 231
138 133 181 9 55 261 359 50 158 269 276 287 62 88 96 106 90 82 78 80 83 94 110 142 161 178 189 197 201 206 211 217 220 222 225 230 233 234 235 236 235 234 234 234
115 126 165 166 220 310 353 86 31 284 343 6 52 71 116 113 94 94 93 80 76 81 93 111 157 173 196 207 210 216 220 220 223 226 230 234 237 238 238 237 237 234 235 235
321 65 246 114 346 82 25 73 25 34 85 71 80 82 79 104 108 107 107 111 111 112 118 144 168 187 201 212 218 228 232 230 231 233 236 237 238 240 242 243 241 240 236 236
202 179 188 122 100 141 65 66 98 69 73 75 59 66 94 105 94 110 103 93 95 111 179 210 229 235 243 246 246 243 242 238 239 242 242 242 244 244 245 245 245 245 248 245
344 348 68 153 46 92 68 103 82 81 74 68 93 75 62 77 85 88 78 55 35 8 336 299 281 276 276 267 264 257 250 249 251 249 249 247 247 249 248 249 250 243 247 243